When you browse on this site, cookies collect data to enhance your experience and personalize the content and advertising you see.
Visit our Privacy Policy to learn more. By continuing to use the site, you agree to this use of cookies and data.

Meteo pe oră la Fier

Astăzi, 21 Septembrie, Luni

Timp Temperatura Precipitaţii Vânt Presiune Umiditate
00:00 +23°C° 0 mm 1 m/s 760 mmHg 74%
01:00 +20°C° 0 mm 0 m/s 761 mmHg 74%
02:00 +22°C° 0 mm 1 m/s 760 mmHg 73%
03:00 +22°C° 0 mm 1 m/s 760 mmHg 72%
04:00 +22°C° 0 mm 1 m/s 760 mmHg 71%
05:00 +23°C° 0 mm 1 m/s 760 mmHg 66%
06:00 +24°C° 0 mm 1 m/s 760 mmHg 61%
07:00 +25°C° 0 mm 2 m/s 761 mmHg 54%
08:00 +27°C° 0 mm 2 m/s 761 mmHg 51%
09:00 +29°C° 0 mm 2 m/s 761 mmHg 47%
10:00 +30°C° 0 mm 2 m/s 761 mmHg 44%
11:00 +31°C° 0 mm 3 m/s 761 mmHg 45%
12:00 +32°C° 0 mm 4 m/s 760 mmHg 45%
13:00 +33°C° 0 mm 5 m/s 760 mmHg 45%
14:00 +32°C° 0 mm 5 m/s 760 mmHg 48%
15:00 +30°C° 0 mm 4 m/s 760 mmHg 51%
16:00 +29°C° 0 mm 4 m/s 760 mmHg 54%
17:00 +27°C° 0.1 mm 3 m/s 760 mmHg 62%
18:00 +26°C° 0.1 mm 3 m/s 760 mmHg 70%
19:00 +24°C° 0.1 mm 2 m/s 761 mmHg 78%
20:00 +24°C° 0 mm 3 m/s 761 mmHg 78%
21:00 +22°C° 0 mm 3 m/s 761 mmHg 79%
22:00 +22°C° 0 mm 3 m/s 761 mmHg 79%
23:00 +22°C° 0 mm 3 m/s 761 mmHg 79%

Mâine, 22 Septembrie, Marţi

Timp Temperatura Precipitaţii Vânt Presiune Umiditate
00:00 +22°C° 0 mm 3 m/s 761 mmHg 78%
01:00 +21°C° 0 mm 2 m/s 761 mmHg 77%
02:00 +21°C° 0 mm 2 m/s 761 mmHg 76%
03:00 +21°C° 0 mm 2 m/s 761 mmHg 75%
04:00 +21°C° 0 mm 2 m/s 761 mmHg 73%
05:00 +22°C° 0 mm 3 m/s 761 mmHg 69%
06:00 +24°C° 0 mm 3 m/s 761 mmHg 64%
07:00 +25°C° 0 mm 3 m/s 761 mmHg 59%
08:00 +27°C° 0 mm 3 m/s 761 mmHg 51%
09:00 +29°C° 0 mm 3 m/s 761 mmHg 44%
10:00 +31°C° 0 mm 3 m/s 761 mmHg 37%
11:00 +33°C° 0 mm 4 m/s 761 mmHg 36%
12:00 +33°C° 0 mm 6 m/s 760 mmHg 34%
13:00 +34°C° 0 mm 7 m/s 760 mmHg 33%
14:00 +33°C° 0 mm 7 m/s 760 mmHg 36%
15:00 +32°C° 0 mm 7 m/s 760 mmHg 39%
16:00 +32°C° 0 mm 8 m/s 759 mmHg 42%
17:00 +29°C° 0 mm 6 m/s 760 mmHg 48%
18:00 +27°C° 0 mm 5 m/s 760 mmHg 54%
19:00 +26°C° 0 mm 4 m/s 760 mmHg 60%
20:00 +25°C° 0.1 mm 4 m/s 760 mmHg 61%
21:00 +25°C° 0.1 mm 4 m/s 760 mmHg 62%
22:00 +23°C° 0.1 mm 4 m/s 760 mmHg 63%
23:00 +23°C° 0.1 mm 4 m/s 760 mmHg 64%

Poimâine, 23 Septembrie, Miercuri

Timp Temperatura Precipitaţii Vânt Presiune Umiditate
00:00 +22°C° 0.1 mm 4 m/s 760 mmHg 65%
01:00 +22°C° 0.1 mm 4 m/s 760 mmHg 66%
02:00 +22°C° 0 mm 4 m/s 760 mmHg 67%
03:00 +22°C° 0 mm 4 m/s 759 mmHg 68%
04:00 +22°C° 0 mm 4 m/s 759 mmHg 69%
05:00 +23°C° 0.1 mm 4 m/s 759 mmHg 66%
06:00 +23°C° 0.1 mm 4 m/s 759 mmHg 63%
07:00 +25°C° 0.1 mm 4 m/s 759 mmHg 60%
08:00 +27°C° 0.3 mm 5 m/s 759 mmHg 55%
09:00 +29°C° 0.3 mm 5 m/s 759 mmHg 50%
10:00 +32°C° 0.3 mm 6 m/s 759 mmHg 45%
11:00 +32°C° 0.1 mm 7 m/s 759 mmHg 43%
12:00 +32°C° 0.1 mm 8 m/s 759 mmHg 42%
13:00 +33°C° 0.1 mm 8 m/s 758 mmHg 41%
14:00 +32°C° 0.5 mm 8 m/s 758 mmHg 44%
15:00 +31°C° 0.5 mm 8 m/s 758 mmHg 48%
16:00 +30°C° 0.5 mm 7 m/s 758 mmHg 51%
17:00 +28°C° 1.5 mm 6 m/s 758 mmHg 59%
18:00 +27°C° 1.5 mm 6 m/s 758 mmHg 67%
19:00 +25°C° 1.5 mm 5 m/s 758 mmHg 74%
20:00 +25°C° 0.7 mm 4 m/s 758 mmHg 74%
21:00 +25°C° 0.7 mm 4 m/s 758 mmHg 74%
22:00 +24°C° 0.7 mm 3 m/s 758 mmHg 73%
23:00 +24°C° 0.9 mm 3 m/s 758 mmHg 74%

24 Septembrie, Joi

Timp Temperatura Precipitaţii Vânt Presiune Umiditate
00:00 +24°C° 0.9 mm 3 m/s 758 mmHg 76%
01:00 +22°C° 0.9 mm 3 m/s 758 mmHg 77%
02:00 +22°C° 0.4 mm 3 m/s 758 mmHg 77%
03:00 +22°C° 0.4 mm 3 m/s 758 mmHg 77%
04:00 +22°C° 0.4 mm 3 m/s 758 mmHg 77%
05:00 +23°C° 0.3 mm 2 m/s 758 mmHg 75%
06:00 +24°C° 0.3 mm 2 m/s 758 mmHg 72%
07:00 +24°C° 0.3 mm 2 m/s 758 mmHg 70%
08:00 +26°C° 0.2 mm 2 m/s 758 mmHg 63%
09:00 +27°C° 0.2 mm 2 m/s 759 mmHg 56%
10:00 +29°C° 0.2 mm 2 m/s 759 mmHg 50%
11:00 +29°C° 0 mm 3 m/s 759 mmHg 48%
12:00 +29°C° 0 mm 3 m/s 759 mmHg 47%
13:00 +30°C° 0 mm 4 m/s 759 mmHg 46%
14:00 +29°C° 0 mm 3 m/s 758 mmHg 48%
15:00 +29°C° 0 mm 3 m/s 758 mmHg 51%
16:00 +28°C° 0 mm 3 m/s 758 mmHg 53%
17:00 +27°C° 0 mm 2 m/s 758 mmHg 60%
18:00 +25°C° 0 mm 2 m/s 759 mmHg 66%
19:00 +24°C° 0 mm 1 m/s 759 mmHg 73%
20:00 +24°C° 0 mm 1 m/s 759 mmHg 73%
21:00 +23°C° 0 mm 1 m/s 760 mmHg 74%
22:00 +21°C° 0 mm 0 m/s 760 mmHg 74%
23:00 +23°C° 0 mm 1 m/s 760 mmHg 75%

25 Septembrie, Vineri

Timp Temperatura Precipitaţii Vânt Presiune Umiditate
00:00 +22°C° 0 mm 1 m/s 760 mmHg 75%
01:00 +22°C° 0 mm 1 m/s 759 mmHg 76%
02:00 +22°C° 0 mm 1 m/s 759 mmHg 75%
03:00 +22°C° 0 mm 1 m/s 759 mmHg 74%
04:00 +21°C° 0 mm 2 m/s 759 mmHg 73%
05:00 +21°C° 0 mm 2 m/s 759 mmHg 68%
06:00 +23°C° 0 mm 2 m/s 759 mmHg 63%
07:00 +24°C° 0 mm 2 m/s 759 mmHg 58%
08:00 +26°C° 0 mm 2 m/s 759 mmHg 50%
09:00 +28°C° 0 mm 2 m/s 759 mmHg 42%
10:00 +30°C° 0 mm 1 m/s 759 mmHg 35%
11:00 +31°C° 0 mm 2 m/s 758 mmHg 33%
12:00 +33°C° 0 mm 3 m/s 758 mmHg 31%
13:00 +34°C° 0 mm 4 m/s 757 mmHg 30%
14:00 +33°C° 0 mm 4 m/s 757 mmHg 34%
15:00 +32°C° 0 mm 5 m/s 757 mmHg 38%
16:00 +30°C° 0 mm 5 m/s 756 mmHg 42%
17:00 +29°C° 0 mm 5 m/s 756 mmHg 45%
18:00 +28°C° 0 mm 5 m/s 756 mmHg 48%
19:00 +27°C° 0 mm 5 m/s 756 mmHg 51%
20:00 +26°C° 0 mm 5 m/s 756 mmHg 51%
21:00 +26°C° 0 mm 5 m/s 756 mmHg 51%
22:00 +26°C° 0 mm 5 m/s 756 mmHg 50%
23:00 +26°C° 0 mm 5 m/s 756 mmHg 49%

26 Septembrie, Sâmbătă

Timp Temperatura Precipitaţii Vânt Presiune Umiditate
00:00 +26°C° 0 mm 5 m/s 756 mmHg 49%
01:00 +26°C° 0 mm 5 m/s 755 mmHg 48%
02:00 +25°C° 0 mm 4 m/s 755 mmHg 49%
03:00 +25°C° 0 mm 4 m/s 755 mmHg 49%
04:00 +24°C° 0 mm 3 m/s 755 mmHg 50%
05:00 +25°C° 0 mm 3 m/s 755 mmHg 49%
06:00 +25°C° 0 mm 3 m/s 754 mmHg 48%
07:00 +26°C° 0 mm 4 m/s 754 mmHg 46%
08:00 +28°C° 0 mm 5 m/s 753 mmHg 42%
09:00 +30°C° 0 mm 6 m/s 753 mmHg 37%
10:00 +33°C° 0 mm 7 m/s 752 mmHg 33%
11:00 +34°C° 0 mm 9 m/s 752 mmHg 32%
12:00 +34°C° 0 mm 10 m/s 751 mmHg 32%
13:00 +34°C° 0 mm 12 m/s 751 mmHg 32%
14:00 +32°C° 1.1 mm 11 m/s 751 mmHg 40%
15:00 +29°C° 1.1 mm 10 m/s 751 mmHg 49%
16:00 +27°C° 1.1 mm 9 m/s 751 mmHg 58%
17:00 +26°C° 4.8 mm 8 m/s 751 mmHg 66%
18:00 +23°C° 4.8 mm 6 m/s 751 mmHg 75%
19:00 +22°C° 4.8 mm 5 m/s 751 mmHg 84%
20:00 +21°C° 4.2 mm 5 m/s 752 mmHg 87%
21:00 +20°C° 4.2 mm 4 m/s 752 mmHg 89%
22:00 +19°C° 4.2 mm 4 m/s 752 mmHg 92%
23:00 +18°C° 3.2 mm 3 m/s 752 mmHg 92%
Arată mai mult